Terminal Aerodrome Forecast
Issued by NWS Corpus Christi, TX

Home | Current Version | Previous Version | Text Only | Print | Product List | Glossary On
Versions: 1 2 3 4 5 6 7 8 9 10 11 12 13 14 15 16
616
FTUS44 KCRP 090525
TAFCRP
TAF
KCRP 090525Z 0906/1006 01015G22KT P6SM OVC050
     FM091200 01015KT P6SM OVC060
     FM091800 02010KT P6SM OVC060=

USA.gov is the U.S. government's official web portal to all federal, state and local government web resources and services.